Regional Weather Roundup
Issued by NWS

Home | Current Version | Previous Version | Graphics & Text | Print | Product List | Glossary Off
Versions: 1 2 3 4 5 6 7 8 9 10 11 12 13 14 15 16 17 18 19 20 21 22 23 24 25 26 27 28 29 30 31 32 33 34 35 36 37 38 39 40 41 42 43 44 45 46 47 48 49 50

000
ASUS43 KDTX 042010
RWRMI
MICHIGAN HOURLY REGIONAL WEATHER ROUNDUP
NATIONAL WEATHER SERVICE DETROIT/PONTIAC MI
400 PM EDT MON MAY 04 2015

NOTE: "FAIR" INDICATES FEW OR NO CLOUDS BELOW 12,000 FEET WITH NO
SIGNIFICANT WEATHER AND/OR OBSTRUCTION TO VISIBILITY.

MIZ047>049-052>055-059>063-066>070-074>076-081>083-042100-
SOUTHEAST LOWER MICHIGAN

CITY           SKY/WX    TMP DP  RH WIND       PRES   REMARKS
ADRIAN         CLOUDY    72  59  63 W14G21    30.11S
ALMA           PTSUNNY   72  58  60 NW5       30.09R
ANN ARBOR      CLOUDY    73  60  63 SW13      30.09R
BAD AXE        CLOUDY    67  56  67 NW9       30.08S
CARO           CLOUDY    70  58  66 CALM      30.08R
DETROIT CITY   CLOUDY    73  58  59 SW13      30.06R
DETROIT        CLOUDY    73  59  61 SW16      30.09R
FLINT          CLOUDY    74  57  55 NW16      30.08R
GROSSE ILE     CLOUDY    68  61  77 SW13      30.08R
HILLSDALE      CLOUDY    74  58  56 W8        30.11S
HOWELL         CLOUDY    75  54  47 W12G17    30.08R

CITY           SKY/WX    TMP DP  RH WIND       PRES   REMARKS
JACKSON        PTSUNNY   75  56  51 W15       30.09R
LAMBERTVILLE   CLOUDY    70  59  68 SW8       30.12S
LANSING        PTSUNNY   74  57  55 W13       30.10R
LAPEER         PTSUNNY   71  55  56 NW13G18   30.07R
MASON          PTSUNNY   75  54  48 W9        30.09R
MONROE         CLOUDY    70  59  68 SW14G22   30.09R
MT. CLEMENS    CLOUDY    76  55  48 W14       30.03R
PONTIAC        CLOUDY    75  55  49 NW16G24   30.06R
PORT HOPE        N/A     68  56  65 NW6       30.05S
PORT HURON     CLOUDY    73  57  56 NW12G18   30.06R
TRI CITIES     CLOUDY    75  57  53 N7        30.08R
MIDLAND        FAIR      73  53  51 W5        30.07S
TROY           CLOUDY    76  52  42 W12G17    30.08R
SAGINAW HB     CLOUDY    72  57  60 NW9       30.07R
$$
MIZ043>046-050>051-056>058-064>065-071>073-077>080-042100-
SOUTHWEST LOWER MICHIGAN

CITY           SKY/WX    TMP DP  RH WIND       PRES   REMARKS
BATTLE CREEK   PTSUNNY   74  55  51 W13       30.12R
BENTON HARBOR  PTSUNNY   59  55  87 NW7       30.15R FOG
BIG RAPIDS     CLOUDY    72  48  43 NW6       30.09S
COLDWATER      CLOUDY    73  55  52 W12G20    30.11S
FREMONT        CLOUDY    72  49  43 N5        30.09R
HOLLAND        MOSUNNY   60  53  77 W10       30.14S
GRAND RAPIDS   PTSUNNY   72  56  57 W10       30.11R
IONIA          PTSUNNY   74  56  52 W9G16     30.09S
KALAMAZOO      PTSUNNY   73  56  54 NW13      30.12R
LUDINGTON      SUNNY     69  39  33 N14G22    30.13R
MARSHALL       PTSUNNY   75  56  52 MISG      30.10S
MOUNT PLEASANT PTSUNNY   74  53  47 NW6G18    30.08R
MUSKEGON       PTSUNNY   61  50  67 W6        30.13R
SOUTH HAVEN    PTSUNNY   59  53  82 NW8       30.15F HAZE
$$
MIZ016>042-042100-
NORTHERN LOWER MICHIGAN

CITY           SKY/WX    TMP DP  RH WIND       PRES   REMARKS
ALPENA         SUNNY     71  41  33 N20G26    30.06R
BEAVER ISLAND  MOSUNNY   59  38  45 NW9G21    30.15R
BELLAIRE       SUNNY     64  41  42 NW13G21   30.15R
CADILLAC       SUNNY     69  33  26 N9G23     30.12R
CHARLEVOIX     MOSUNNY   58  41  52 NW15G23   30.18R
FRANKFORT      SUNNY     65  37  35 NE8G16    30.16R
GAYLORD        SUNNY     65  37  35 N9G18     30.11R
GRAYLING       SUNNY     70  33  25 NW10G17   30.11R
HARBOR SPRINGS SUNNY     48  39  72 SW8       30.13R
HOUGHTON LAKE  SUNNY     72  38  29 NW15      30.09R
MANISTEE       SUNNY     66  43  42 N10G17    30.15R
OSCODA         MOSUNNY   69  53  57 E10G21    30.05R
PELLSTON       MOSUNNY   67  39  35 NW21G26   30.12R
ROGERS CITY    SUNNY     65  40  39 NW13G21   30.10R
TRAVERSE CITY  MOSUNNY   63  42  46 N12       30.15R
$$
MIZ007>008-015-042100-
EASTERN UPPER MICHIGAN

CITY           SKY/WX    TMP DP  RH WIND       PRES   REMARKS
KINROSS        SUNNY     61  37  41 NW22G28   30.10R
MACKINAC ISLAN SUNNY     64  35  34 NW8G17    30.10R
NEWBERRY       SUNNY     59  35  40 NW15G25   30.14R
S. S. MARIE    SUNNY     54  40  59 NW14G28   30.12R
MUNISING         N/A     51  37  58 NW15      30.20R
$$
MIZ004>006-011>014-085-042100-
CENTRAL UPPER MICHIGAN

CITY           SKY/WX    TMP DP  RH WIND       PRES   REMARKS
MANISTIQUE     MOSUNNY   61  35  37 N16G23    30.15R
ESCANABA       SUNNY     64  37  36 N10G20    30.15R
MENOMINEE      SUNNY     63  39  42 E12       30.15R
SAWYER-GWINN   SUNNY     55  36  47 NE17G23   30.18R
$$
MIZ001>003-009>011-084-042100-
WESTERN UPPER MICHIGAN

CITY           SKY/WX    TMP DP  RH WIND       PRES   REMARKS
IRON MOUNTAIN  SUNNY     68  29  23 N14       30.14S
HOUGHTON       SUNNY     59  35  40 NW8       30.18R
COPPER HARBOR    N/A     50  39  66 N10       30.17R
IRONWOOD       SUNNY     61  25  25 NW8       30.18S
$$

ABBREVIATIONS USED IN REMARKS
   TC - TEMPERATURE IN CELSIUS
  WCI - WIND CHILL INDEX
   HX - HEAT INDEX
  VSB - VISIBILITY



USA.gov is the U.S. government's official web portal to all federal, state and local government web resources and services.